Weather History for Reading, PA

Change the Weather History Date:

Friday, March 22, 2013

  Actual Average Record
Temperature  
Mean Temperature 34 °F 43 °F  
Max Temperature 41 °F 53 °F 83 °F (1938)
Min Temperature 27 °F 33 °F 14 °F (1986)
Degree Days  
Heating Degree Days 31 22  
Month to date heating degree days 566 561  
Since 1 July heating degree days 4277 4603  
Cooling Degree Days 0 0  
Month to date cooling degree days 0 0  
Year to date cooling degree days 0 0  
Moisture  
Dew Point 19 °F    
Average Humidity 55    
Maximum Humidity 69    
Minimum Humidity 41    
Precipitation  
Precipitation T in 0.13 in 2.70 in (2000)
Month to date precipitation 1.81 2.30  
Year to date precipitation 6.75 7.83  
Sea Level Pressure  
Sea Level Pressure 29.88 in    
Wind  
Wind Speed 13 mph (WNW)    
Max Wind Speed 24 mph    
Max Gust Speed 30 mph    
Visibility 10 miles    
Events      
T = Trace of Precipitation, MM = Missing Value Source: NWS Daily Summary

Daily Weather History Graph

Daily Weather History Graph

Search for Another Location

Airport:

Trip Planner

Search our weather history database for the weather conditions in past years. The results will help you decide how hot, cold, wet, or windy it might be!

Date:

Astronomy

Mar. 22, 2013 Rise Set
Actual Time 7:03 AM EDT 7:18 PM EDT
Civil Twilight 6:36 AM EDT 7:45 PM EDT
Nautical Twilight 6:04 AM EDT 8:17 PM EDT
Astronomical Twilight 5:32 AM EDT 8:50 PM EDT
Moon 2:42 PM EDT (3/22) 4:03 AM EDT (3/22)
Length of Visible Light 13h 09m
Length of Day
12h 14m
Waxing Gibbous, 77% of the Moon is Illuminated
Mar 22
Waxing Gibbous
Mar 27
Full
Apr 3
Last Quarter
Apr 10
New
Apr 18
First Quarter

Hourly Weather History & Observations

Time (EDT) Temp. Windchill Dew Point Humidity Pressure Visibility Wind Dir Wind Speed Gust Speed Precip Events Conditions
12:54 AM 28.9 °F 20.4 °F 15.1 °F 56% 29.82 in 10.0 mi West 9.2 mph - N/A   Clear
1:54 AM 28.0 °F 20.0 °F 16.0 °F 61% 29.82 in 10.0 mi West 8.1 mph - N/A   Clear
2:54 AM 28.0 °F 20.0 °F 16.0 °F 61% 29.82 in 10.0 mi West 8.1 mph - N/A   Clear
3:54 AM 28.0 °F 18.6 °F 17.1 °F 63% 29.81 in 10.0 mi West 10.4 mph - N/A   Clear
4:54 AM 28.0 °F 20.0 °F 18.0 °F 66% 29.81 in 10.0 mi West 8.1 mph - N/A   Partly Cloudy
5:54 AM 28.0 °F 19.3 °F 18.0 °F 66% 29.82 in 10.0 mi West 9.2 mph - N/A   Partly Cloudy
6:54 AM 28.0 °F 19.3 °F 19.9 °F 72% 29.84 in 10.0 mi West 9.2 mph - N/A   Clear
7:54 AM 30.0 °F 21.1 °F 21.0 °F 69% 29.86 in 10.0 mi West 10.4 mph - N/A   Clear
8:54 AM 32.0 °F 22.1 °F 21.0 °F 64% 29.87 in 10.0 mi West 13.8 mph - N/A   Partly Cloudy
9:54 AM 33.1 °F 22.6 °F 19.9 °F 59% 29.88 in 10.0 mi WNW 16.1 mph 24.2 mph N/A   Overcast
10:54 AM 35.1 °F 25.2 °F 19.0 °F 52% 29.88 in 9.0 mi WNW 16.1 mph - 0.00 in   Overcast
11:54 AM 36.0 °F 26.7 °F 18.0 °F 48% 29.88 in 10.0 mi West 15.0 mph 24.2 mph 0.00 in   Overcast
12:54 PM 39.9 °F 31.8 °F 19.9 °F 45% 29.86 in 10.0 mi West 15.0 mph 23.0 mph 0.00 in   Overcast
1:54 PM 39.9 °F 31.8 °F 19.0 °F 43% 29.86 in 10.0 mi WNW 15.0 mph 24.2 mph N/A   Overcast
2:54 PM 39.0 °F 30.6 °F 19.0 °F 45% 29.86 in 10.0 mi West 15.0 mph 25.3 mph N/A   Scattered Clouds
3:54 PM 41.0 °F 31.9 °F 19.0 °F 41% 29.86 in 10.0 mi West 19.6 mph 25.3 mph N/A   Scattered Clouds
4:54 PM 39.0 °F 29.9 °F 19.0 °F 45% 29.88 in 10.0 mi West 17.3 mph 27.6 mph N/A   Overcast
5:54 PM 37.9 °F 28.5 °F 19.0 °F 47% 29.90 in 10.0 mi West 17.3 mph 28.8 mph N/A   Overcast
6:54 PM 37.0 °F 26.7 °F 19.0 °F 48% 29.92 in 10.0 mi WNW 19.6 mph 27.6 mph N/A   Clear
7:54 PM 35.1 °F 26.9 °F 19.0 °F 52% 29.94 in 10.0 mi WNW 11.5 mph - N/A   Clear
8:54 PM 34.0 °F 25.5 °F 19.0 °F 54% 29.95 in 10.0 mi WNW 11.5 mph 18.4 mph N/A   Clear
9:54 PM 34.0 °F 24.6 °F 19.9 °F 56% 29.96 in 10.0 mi NW 13.8 mph - N/A   Scattered Clouds
10:54 PM 34.0 °F 24.6 °F 19.0 °F 54% 29.96 in 10.0 mi WNW 13.8 mph - N/A   Clear
11:54 PM 33.1 °F 25.5 °F 18.0 °F 54% 29.98 in 10.0 mi WNW 9.2 mph - N/A   Overcast